{"data":{"norad_id":48880,"intl_designator":"2021-059B","name":"STARLINK-3004","alt_names":[],"object_type":"PAYLOAD","status":"ACTIVE","operator":null,"country":"US","launch_date":"2021-06-30","launch_site_code":"AFETR","launch_vehicle":null,"mission":null,"orbit_class":"UNKNOWN","rcs_meters":null,"size_class":null,"mass_kg":null,"dimensions":null,"purposes":["comms"],"wikipedia_slug":null,"has_3d_model":false,"image_url":null,"decayed_at":null,"tle_current":{"epoch":"2026-06-14T04:54:10.962720Z","epoch_age_seconds":8533961,"freshness":"OLD","line1":"1 48880U 21059B   26165.20429355  .08792793  27331-5  20035-3 0  9994","line2":"2 48880  97.6515 297.4767 0012540 278.9204  81.0678 16.45501633273724","mean_motion":16.45501633,"eccentricity":0.001254,"inclination_deg":97.6515,"raan_deg":297.4767,"arg_perigee_deg":278.9204,"mean_anomaly_deg":81.0678,"bstar":0.00020035,"rev_number":27372,"period_min":87.511307866323,"perigee_km":143.02039575748,"apogee_km":159.39599350562,"semimajor_km":6529.3451946315,"source":"CELESTRAK","updated_at":"2026-06-14T09:01:10.661350Z"}}}